This is the latest recevied weather packets stored in our database for station/object SP4MAZ-13. If no packets are shown the sender has not sent any weather packets the latest 10 day(s).
| Time | Temp. | Humidity | Pressure | Rain* | Wind** | Luminosity | Snow |
|---|---|---|---|---|---|---|---|
| 1777360408 | 6.11° C | 53% | 2147.4 hPa | - | - | - | - |
| 1777360105 | 6.67° C | 56% | 2147.4 hPa | - | - | - | - |
| 1777359499 | 5.56° C | 56% | 2147.4 hPa | - | - | - | - |
| 1777358892 | 5.56° C | 54% | 2147.4 hPa | - | - | - | - |
| 1777358285 | 6.11° C | 60% | 2147.4 hPa | - | - | - | - |
| 1777357981 | 5.56° C | 59% | 2147.4 hPa | - | - | - | - |
| 1777357678 | 5.56° C | 63% | 2147.4 hPa | - | - | - | - |
| 1777357375 | 5° C | 59% | 2147.4 hPa | - | - | - | - |
| 1777357071 | 5° C | 63% | 2147.4 hPa | - | - | - | - |
| 1777356767 | 5° C | 62% | 2147.4 hPa | - | - | - | - |
| 1777356464 | 5.56° C | 63% | 2147.4 hPa | - | - | - | - |
| 1777356160 | 5.56° C | 64% | 2147.4 hPa | - | - | - | - |
| 1777355857 | 5° C | 65% | 2147.4 hPa | - | - | - | - |
| 1777354947 | 5° C | 65% | 2147.4 hPa | - | - | - | - |
| 1777354643 | 4.44° C | 66% | 2147.4 hPa | - | - | - | - |
| 1777354339 | 5° C | 67% | 2147.4 hPa | - | - | - | - |
| 1777354037 | 5° C | 68% | 2147.4 hPa | - | - | - | - |
| 1777353733 | 5° C | 67% | 2147.4 hPa | - | - | - | - |
| 1777353429 | 5° C | 69% | 2147.4 hPa | - | - | - | - |
| 1777353126 | 5° C | 68% | 2147.4 hPa | - | - | - | - |
| 1777352822 | 5° C | 68% | 2147.4 hPa | - | - | - | - |
| 1777352519 | 5° C | 68% | 2147.4 hPa | - | - | - | - |
| 1777352216 | 5° C | 68% | 2147.4 hPa | - | - | - | - |
| 1777351912 | 5° C | 70% | 2147.4 hPa | - | - | - | - |
| 1777351001 | 4.44° C | 74% | 2147.4 hPa | - | - | - | - |
* Rain since midnight (hover to see other rain measurements)
** Current wind speed in m/s (hover to see current wind gust speed)